Location: Unspecified
(58.7730°N, 5.8460°E)
Time: 07:56:54
(UTC+02:00)

Okean 3 - Visible Passes

Search period start: 02 May 2016 00:00
Search period end: 12 May 2016 00:00
Orbit: 578 x 604 km, 82.5° (Epoch: 01 May)

Date Brightness Start Highest point End Pass type
(mag) Time Alt. Az. Time Alt. Az. Time Alt. Az.
02 May 3.6 22:27:16 10° S 22:31:30 60° E 22:35:43 10° NNE visible
03 May 5.7 00:05:33 10° WSW 00:09:09 25° WNW 00:12:44 10° N visible
03 May 3.5 22:35:45 10° S 22:40:02 81° ESE 22:44:20 10° NNE visible
04 May 6.1 00:14:42 10° WSW 00:17:54 20° WNW 00:21:06 10° N visible
04 May 3.7 22:44:19 10° SSW 22:48:37 76° WNW 22:52:54 10° N visible
05 May 6.3 00:24:00 10° W 00:26:40 16° NW 00:29:21 10° NNW visible
05 May 4.2 22:53:00 10° SSW 22:57:13 56° WNW 23:01:26 10° N visible
06 May 6.5 00:33:33 10° WNW 00:35:30 13° NW 00:37:27 10° NNW visible
06 May 4.8 23:01:48 10° SW 23:05:52 42° WNW 23:09:56 10° N visible
07 May 6.9 00:43:54 10° NW 00:44:22 10° NW 00:44:49 10° NW visible
07 May 5.4 23:10:41 10° SW 23:14:32 32° WNW 23:18:23 10° N visible
08 May 5.9 23:19:42 10° WSW 23:23:15 25° WNW 23:26:48 10° N visible
09 May 6.3 23:28:50 10° WSW 23:32:00 20° WNW 23:35:09 10° N visible
10 May 6.5 23:38:09 10° W 23:40:47 16° NW 23:43:24 10° NNW visible
11 May 6.7 23:47:42 10° WNW 23:49:35 13° NW 23:51:29 10° NNW visible
